| time (UTC) | temp C | wind direction | speed KPH | gust KPH | rain 1hr cm | rain 24hr cm | rain mn cm | humidity % | barometer mb |
| 20260506103535 | 12 | 0 | 0.0 | 0.0 | 0.00 | 0.00 | 0.00 | 86 | 1019.2 |
| 20260506103044 | 12 | 0 | 0.0 | 0.0 | 0.00 | 0.00 | 0.00 | 86 | 1019.2 |
| 20260506102535 | 12 | 0 | 0.0 | 0.0 | 0.00 | 0.00 | 0.00 | 86 | 1019.2 |
| 20260506102034 | 12 | 0 | 0.0 | 0.0 | 0.00 | 0.00 | 0.00 | 86 | 1019.1 |
| 20260506101548 | 12 | 0 | 0.0 | 0.0 | 0.00 | 0.00 | 0.00 | 86 | 1019.1 |
| 20260506101033 | 12 | 0 | 0.0 | 0.0 | 0.00 | 0.00 | 0.00 | 86 | 1019.0 |
| 20260506100534 | 12 | 0 | 0.0 | 0.0 | 0.00 | 0.00 | 0.00 | 86 | 1019.0 |
| 20260506100041 | 12 | 0 | 0.0 | 0.0 | 0.00 | 0.00 | 0.00 | 86 | 1019.0 |
| 20260506095534 | 12 | 0 | 0.0 | 0.0 | 0.00 | 0.00 | 0.00 | 86 | 1019.1 |
| 20260506095033 | 12 | 0 | 0.0 | 0.0 | 0.00 | 0.00 | 0.00 | 85 | 1019.0 |
| 20260506094546 | 12 | 0 | 0.0 | 0.0 | 0.00 | 0.00 | 0.00 | 86 | 1019.0 |
| 20260506094034 | 12 | 0 | 0.0 | 0.0 | 0.00 | 0.00 | 0.00 | 86 | 1019.1 |
| 20260506093539 | 12 | 0 | 0.0 | 0.0 | 0.00 | 0.00 | 0.00 | 86 | 1019.0 |
| 20260506093050 | 12 | 0 | 0.0 | 0.0 | 0.00 | 0.00 | 0.00 | 85 | 1018.9 |
| 20260506092534 | 12 | 0 | 0.0 | 0.0 | 0.00 | 0.00 | 0.00 | 86 | 1018.9 |
| 20260506092035 | 12 | 0 | 0.0 | 0.0 | 0.00 | 0.00 | 0.00 | 86 | 1019.0 |
| 20260506091546 | 12 | 0 | 0.0 | 0.0 | 0.00 | 0.00 | 0.00 | 86 | 1019.0 |
| 20260506091035 | 12 | 0 | 0.0 | 0.0 | 0.00 | 0.00 | 0.00 | 86 | 1019.0 |
| 20260506090534 | 12 | 0 | 0.0 | 1.6 | 0.00 | 0.00 | 0.00 | 86 | 1019.0 |
| 20260506090045 | 12 | 0 | 0.0 | 1.6 | 0.00 | 0.00 | 0.00 | 85 | 1018.9 |
| 20260506085535 | 12 | 0 | 0.0 | 3.2 | 0.00 | 0.00 | 0.00 | 85 | 1018.9 |
| 20260506085035 | 12 | 0 | 0.0 | 3.2 | 0.00 | 0.00 | 0.00 | 85 | 1018.9 |
| 20260506084544 | 12 | 290 | 0.0 | 3.2 | 0.00 | 0.00 | 0.00 | 85 | 1018.9 |
| 20260506084035 | 12 | 0 | 0.0 | 3.2 | 0.00 | 0.00 | 0.00 | 85 | 1019.0 |
| 20260506083538 | 12 | 0 | 0.0 | 4.8 | 0.00 | 0.00 | 0.00 | 85 | 1019.0 |
| 20260506083051 | 12 | 0 | 0.0 | 4.8 | 0.00 | 0.00 | 0.00 | 85 | 1019.1 |
| 20260506082534 | 12 | 0 | 0.0 | 4.8 | 0.00 | 0.00 | 0.00 | 85 | 1019.0 |
| 20260506082033 | 12 | 0 | 0.0 | 3.2 | 0.00 | 0.00 | 0.00 | 85 | 1019.1 |
| 20260506081552 | 12 | 0 | 0.0 | 3.2 | 0.00 | 0.00 | 0.00 | 85 | 1019.1 |
| 20260506081035 | 12 | 0 | 0.0 | 3.2 | 0.00 | 0.00 | 0.00 | 85 | 1019.1 |
| 20260506080537 | 12 | 0 | 0.0 | 4.8 | 0.00 | 0.00 | 0.00 | 85 | 1019.0 |
| 20260506073050 | 12 | 0 | 1.6 | 4.8 | 0.00 | 0.00 | 0.00 | 84 | 1018.8 |
| 20260506072535 | 12 | 0 | 0.0 | 3.2 | 0.00 | 0.00 | 0.00 | 84 | 1018.7 |
| 20260506072033 | 12 | 303 | 0.0 | 4.8 | 0.00 | 0.00 | 0.00 | 84 | 1018.6 |
| 20260506071550 | 12 | 0 | 0.0 | 4.8 | 0.00 | 0.00 | 0.00 | 84 | 1018.6 |
| 20260506071035 | 12 | 292 | 1.6 | 4.8 | 0.00 | 0.00 | 0.00 | 84 | 1018.6 |
| 20260506070533 | 12 | 0 | 0.0 | 3.2 | 0.00 | 0.00 | 0.00 | 84 | 1018.5 |
| 20260506070105 | 12 | 331 | 0.0 | 4.8 | 0.00 | 0.00 | 0.00 | 84 | 1018.4 |
| 20260506062034 | 12 | 313 | 1.6 | 6.4 | 0.00 | 0.00 | 0.00 | 83 | 1017.9 |
| 20260506061545 | 12 | 313 | 0.0 | 6.4 | 0.00 | 0.00 | 0.00 | 83 | 1017.9 |
| 20260506061034 | 12 | 0 | 0.0 | 6.4 | 0.00 | 0.00 | 0.00 | 83 | 1017.9 |
| 20260506060534 | 12 | 307 | 1.6 | 6.4 | 0.00 | 0.00 | 0.00 | 83 | 1017.9 |
| 20260506051035 | 12 | 0 | 0.0 | 6.4 | 0.00 | 0.00 | 0.00 | 83 | 1017.7 |
| 20260506050534 | 12 | 0 | 1.6 | 6.4 | 0.00 | 0.00 | 0.00 | 83 | 1017.7 |
| 20260506045033 | 12 | 317 | 1.6 | 6.4 | 0.00 | 0.00 | 0.00 | 82 | 1017.6 |
| 20260506044556 | 12 | 300 | 1.6 | 4.8 | 0.00 | 0.00 | 0.00 | 82 | 1017.5 |
| 20260506044036 | 12 | 317 | 0.0 | 6.4 | 0.00 | 0.00 | 0.00 | 82 | 1017.5 |
| 20260506043533 | 12 | 352 | 1.6 | 6.4 | 0.00 | 0.00 | 0.00 | 82 | 1017.3 |
| 20260506043046 | 12 | 304 | 1.6 | 6.4 | 0.00 | 0.00 | 0.00 | 82 | 1017.3 |
| 20260506042533 | 12 | 0 | 0.0 | 8.0 | 0.00 | 0.00 | 0.00 | 82 | 1017.2 |
| 20260506042035 | 12 | 292 | 1.6 | 11.3 | 0.00 | 0.00 | 0.00 | 81 | 1017.1 |
| 20260506041551 | 12 | 338 | 3.2 | 11.3 | 0.00 | 0.00 | 0.00 | 81 | 1017.0 |
| 20260506041032 | 12 | 352 | 1.6 | 9.7 | 0.00 | 0.00 | 0.00 | 81 | 1017.0 |
| 20260506040532 | 12 | 348 | 3.2 | 11.3 | 0.00 | 0.00 | 0.00 | 81 | 1016.9 |
| 20260506040044 | 13 | 328 | 3.2 | 11.3 | 0.00 | 0.00 | 0.00 | 81 | 1016.9 |
| 20260506035533 | 13 | 288 | 3.2 | 8.0 | 0.00 | 0.00 | 0.00 | 81 | 1016.8 |
| 20260506035032 | 13 | 343 | 1.6 | 8.0 | 0.00 | 0.00 | 0.00 | 81 | 1016.6 |
| 20260506034549 | 13 | 286 | 3.2 | 12.9 | 0.00 | 0.00 | 0.00 | 81 | 1016.6 |
| 20260506034033 | 13 | 333 | 3.2 | 12.9 | 0.00 | 0.00 | 0.00 | 81 | 1016.5 |
| 20260506033531 | 13 | 344 | 1.6 | 8.0 | 0.00 | 0.00 | 0.00 | 81 | 1016.4 |
| 20260506033046 | 12 | 342 | 1.6 | 8.0 | 0.00 | 0.00 | 0.00 | 81 | 1016.2 |
| 20260506032533 | 13 | 311 | 1.6 | 6.4 | 0.00 | 0.00 | 0.00 | 81 | 1016.1 |
| 20260506032032 | 13 | 321 | 1.6 | 6.4 | 0.00 | 0.00 | 0.00 | 81 | 1016.1 |
| 20260506031556 | 13 | 0 | 0.0 | 6.4 | 0.00 | 0.00 | 0.00 | 80 | 1016.0 |
| 20260506031032 | 13 | 351 | 1.6 | 8.0 | 0.00 | 0.00 | 0.00 | 80 | 1015.9 |
| 20260506030532 | 13 | 324 | 1.6 | 8.0 | 0.00 | 0.00 | 0.00 | 79 | 1015.9 |
| 20260506030057 | 13 | 5 | 1.6 | 9.7 | 0.00 | 0.00 | 0.00 | 79 | 1015.8 |
| 20260506025533 | 13 | 325 | 3.2 | 11.3 | 0.00 | 0.00 | 0.00 | 79 | 1015.8 |
| 20260506025032 | 13 | 0 | 3.2 | 11.3 | 0.00 | 0.00 | 0.00 | 78 | 1015.7 |
| 20260506024543 | 13 | 298 | 3.2 | 11.3 | 0.00 | 0.00 | 0.00 | 78 | 1015.7 |
| 20260506024032 | 13 | 310 | 4.8 | 11.3 | 0.00 | 0.00 | 0.00 | 77 | 1015.7 |
| 20260506023532 | 14 | 343 | 3.2 | 12.9 | 0.00 | 0.00 | 0.00 | 77 | 1015.6 |
| 20260506023040 | 14 | 309 | 4.8 | 12.9 | 0.00 | 0.00 | 0.00 | 76 | 1015.5 |
| 20260506022533 | 15 | 360 | 4.8 | 14.5 | 0.00 | 0.00 | 0.00 | 76 | 1015.4 |
| 20260506022032 | 15 | 352 | 3.2 | 14.5 | 0.00 | 0.00 | 0.00 | 75 | 1015.4 |
| 20260506021548 | 15 | 348 | 3.2 | 14.5 | 0.00 | 0.00 | 0.00 | 75 | 1015.3 |
| 20260506021032 | 15 | 297 | 4.8 | 14.5 | 0.00 | 0.00 | 0.00 | 74 | 1015.3 |
| 20260506020535 | 15 | 240 | 3.2 | 14.5 | 0.00 | 0.00 | 0.00 | 73 | 1015.2 |
| 20260506020045 | 15 | 33 | 4.8 | 16.1 | 0.00 | 0.00 | 0.00 | 73 | 1015.2 |
| 20260506015532 | 15 | 288 | 3.2 | 16.1 | 0.00 | 0.00 | 0.00 | 73 | 1015.1 |
| 20260506015033 | 16 | 321 | 6.4 | 16.1 | 0.00 | 0.00 | 0.00 | 72 | 1015.0 |
| 20260506014544 | 16 | 300 | 4.8 | 16.1 | 0.00 | 0.00 | 0.00 | 71 | 1014.9 |
| 20260506014033 | 16 | 294 | 4.8 | 16.1 | 0.00 | 0.00 | 0.00 | 69 | 1014.9 |
| 20260506013532 | 17 | 292 | 6.4 | 16.1 | 0.00 | 0.00 | 0.00 | 68 | 1014.7 |
| 20260506013046 | 17 | 9 | 4.8 | 19.3 | 0.00 | 0.00 | 0.00 | 67 | 1014.8 |
| 20260506012532 | 17 | 317 | 3.2 | 19.3 | 0.00 | 0.00 | 0.00 | 66 | 1014.6 |
| 20260506012032 | 17 | 360 | 3.2 | 12.9 | 0.00 | 0.00 | 0.00 | 68 | 1014.7 |
| 20260506011550 | 17 | 13 | 4.8 | 16.1 | 0.00 | 0.00 | 0.00 | 66 | 1014.6 |
| 20260506011032 | 17 | 23 | 3.2 | 16.1 | 0.00 | 0.00 | 0.00 | 67 | 1014.6 |
| 20260506010532 | 17 | 12 | 4.8 | 14.5 | 0.00 | 0.00 | 0.00 | 66 | 1014.6 |
| 20260506010054 | 17 | 302 | 3.2 | 16.1 | 0.00 | 0.00 | 0.00 | 67 | 1014.4 |
| 20260506005533 | 18 | 315 | 4.8 | 16.1 | 0.00 | 0.00 | 0.00 | 66 | 1014.4 |
| 20260506005036 | 18 | 323 | 3.2 | 16.1 | 0.00 | 0.00 | 0.00 | 66 | 1014.5 |
| 20260506004621 | 18 | 290 | 4.8 | 16.1 | 0.00 | 0.00 | 0.00 | 66 | 1014.4 |
| 20260506004033 | 18 | 33 | 4.8 | 16.1 | 0.00 | 0.00 | 0.00 | 67 | 1014.4 |
| 20260506003532 | 18 | 25 | 6.4 | 16.1 | 0.00 | 0.00 | 0.00 | 67 | 1014.3 |
| 20260506003045 | 18 | 327 | 6.4 | 14.5 | 0.00 | 0.00 | 0.00 | 66 | 1014.3 |
| 20260506002532 | 18 | 30 | 6.4 | 14.5 | 0.00 | 0.00 | 0.00 | 66 | 1014.2 |
| 20260506002034 | 18 | 320 | 4.8 | 16.1 | 0.00 | 0.00 | 0.00 | 67 | 1014.2 |
| 20260506001545 | 17 | 326 | 4.8 | 16.1 | 0.00 | 0.00 | 0.00 | 67 | 1014.1 |
| 20260506001032 | 18 | 343 | 4.8 | 14.5 | 0.00 | 0.00 | 0.00 | 66 | 1014.2 |
| 20260506000532 | 18 | 291 | 4.8 | 16.1 | 0.00 | 0.00 | 0.00 | 65 | 1014.1 |
| 20260506000047 | 18 | 329 | 6.4 | 16.1 | 0.00 | 0.00 | 0.00 | 66 | 1014.1 |
| 20260505235531 | 18 | 360 | 4.8 | 16.1 | 0.00 | 0.00 | 0.00 | 65 | 1014.1 |
| 20260505235034 | 18 | 306 | 4.8 | 16.1 | 0.00 | 0.00 | 0.00 | 65 | 1014.1 |
| 20260505234607 | 18 | 249 | 6.4 | 16.1 | 0.00 | 0.00 | 0.00 | 63 | 1014.2 |
| 20260505234032 | 19 | 347 | 6.4 | 17.7 | 0.00 | 0.00 | 0.00 | 62 | 1014.1 |
| 20260505233532 | 19 | 182 | 6.4 | 17.7 | 0.00 | 0.00 | 0.00 | 62 | 1014.0 |
| 20260505233041 | 20 | 309 | 6.4 | 16.1 | 0.00 | 0.00 | 0.00 | 63 | 1013.9 |
| 20260505232531 | 20 | 279 | 1.6 | 16.1 | 0.00 | 0.00 | 0.00 | 61 | 1014.0 |
| 20260505232034 | 20 | 317 | 3.2 | 17.7 | 0.00 | 0.00 | 0.00 | 62 | 1014.0 |
| 20260505231551 | 20 | 348 | 8.0 | 17.7 | 0.00 | 0.00 | 0.00 | 60 | 1013.9 |
| 20260505231032 | 21 | 341 | 4.8 | 12.9 | 0.00 | 0.00 | 0.00 | 59 | 1013.9 |
| 20260505230532 | 21 | 344 | 1.6 | 16.1 | 0.00 | 0.00 | 0.00 | 61 | 1013.9 |
| 20260505230047 | 21 | 9 | 4.8 | 16.1 | 0.00 | 0.00 | 0.00 | 59 | 1013.9 |
| 20260505225534 | 21 | 352 | 6.4 | 16.1 | 0.00 | 0.00 | 0.00 | 59 | 1013.9 |
| 20260505225033 | 21 | 5 | 4.8 | 16.1 | 0.00 | 0.00 | 0.00 | 57 | 1013.9 |
| 20260505224551 | 21 | 352 | 3.2 | 14.5 | 0.00 | 0.00 | 0.00 | 59 | 1013.9 |
| 20260505224034 | 21 | 341 | 6.4 | 16.1 | 0.00 | 0.00 | 0.00 | 60 | 1013.9 |
| 20260505223534 | 21 | 277 | 3.2 | 16.1 | 0.00 | 0.00 | 0.00 | 60 | 1014.0 |
| 20260505223058 | 21 | 300 | 4.8 | 16.1 | 0.00 | 0.00 | 0.00 | 57 | 1014.0 |
| 20260505222538 | 22 | 227 | 3.2 | 16.1 | 0.00 | 0.00 | 0.00 | 56 | 1013.9 |
| 20260505222031 | 22 | 320 | 1.6 | 9.7 | 0.00 | 0.00 | 0.00 | 58 | 1014.0 |
| 20260505221556 | 22 | 231 | 3.2 | 9.7 | 0.00 | 0.00 | 0.00 | 61 | 1014.1 |
| 20260505221031 | 21 | 196 | 1.6 | 6.4 | 0.00 | 0.00 | 0.00 | 58 | 1014.1 |
| 20260505220537 | 21 | 352 | 0.0 | 6.4 | 0.00 | 0.00 | 0.00 | 58 | 1014.0 |
| 20260505220048 | 21 | 0 | 1.6 | 6.4 | 0.00 | 0.00 | 0.00 | 57 | 1014.1 |
| 20260505215532 | 20 | 61 | 0.0 | 8.0 | 0.00 | 0.03 | 0.00 | 60 | 1014.2 |
| 20260505215034 | 21 | 307 | 3.2 | 8.0 | 0.00 | 0.03 | 0.00 | 61 | 1014.2 |
| 20260505214604 | 21 | 296 | 1.6 | 11.3 | 0.00 | 0.03 | 0.00 | 57 | 1014.2 |
| 20260505214032 | 21 | 300 | 1.6 | 11.3 | 0.00 | 0.03 | 0.00 | 59 | 1014.3 |
| 20260505213533 | 21 | 292 | 4.8 | 11.3 | 0.00 | 0.03 | 0.00 | 57 | 1014.2 |
| 20260505213046 | 21 | 326 | 1.6 | 8.0 | 0.00 | 0.03 | 0.00 | 60 | 1014.3 |
| 20260505212531 | 21 | 325 | 1.6 | 8.0 | 0.00 | 0.03 | 0.00 | 55 | 1014.3 |
| 20260505212035 | 21 | 5 | 1.6 | 6.4 | 0.00 | 0.03 | 0.00 | 62 | 1014.3 |
| 20260505211544 | 21 | 0 | 1.6 | 6.4 | 0.00 | 0.03 | 0.00 | 56 | 1014.4 |
| 20260505211035 | 21 | 150 | 1.6 | 6.4 | 0.00 | 0.03 | 0.00 | 59 | 1014.4 |
| 20260505210534 | 21 | 164 | 1.6 | 6.4 | 0.00 | 0.03 | 0.00 | 60 | 1014.4 |
| 20260505210044 | 20 | 336 | 3.2 | 6.4 | 0.00 | 0.03 | 0.00 | 58 | 1014.5 |
| 20260505205531 | 21 | 0 | 1.6 | 9.7 | 0.00 | 0.03 | 0.00 | 60 | 1014.5 |
| 20260505205032 | 20 | 0 | 3.2 | 9.7 | 0.00 | 0.03 | 0.00 | 62 | 1014.6 |
| 20260505204543 | 20 | 204 | 1.6 | 8.0 | 0.00 | 0.03 | 0.00 | 57 | 1014.6 |
| 20260505204031 | 21 | 331 | 1.6 | 8.0 | 0.00 | 0.03 | 0.00 | 61 | 1014.6 |
| 20260505203531 | 20 | 145 | 3.2 | 8.0 | 0.00 | 0.03 | 0.00 | 60 | 1014.7 |
| 20260505203040 | 20 | 9 | 1.6 | 8.0 | 0.00 | 0.03 | 0.00 | 65 | 1014.7 |
| 20260505202534 | 20 | 0 | 0.0 | 8.0 | 0.00 | 0.03 | 0.00 | 62 | 1014.8 |
| 20260505202030 | 20 | 150 | 1.6 | 4.8 | 0.00 | 0.03 | 0.00 | 62 | 1014.7 |
| 20260505201559 | 20 | 61 | 1.6 | 6.4 | 0.00 | 0.03 | 0.00 | 63 | 1014.8 |
| 20260505201035 | 19 | 225 | 1.6 | 8.0 | 0.00 | 0.03 | 0.00 | 64 | 1014.9 |
| 20260505200530 | 18 | 170 | 1.6 | 8.0 | 0.00 | 0.03 | 0.00 | 61 | 1015.0 |
| 20260505200059 | 19 | 165 | 1.6 | 6.4 | 0.00 | 0.03 | 0.00 | 65 | 1015.0 |
| 20260505195531 | 18 | 0 | 0.0 | 6.4 | 0.00 | 0.23 | 0.00 | 64 | 1015.0 |
| 20260505195034 | 19 | 0 | 1.6 | 6.4 | 0.00 | 0.23 | 0.00 | 65 | 1014.9 |
| 20260505194550 | 18 | 0 | 1.6 | 8.0 | 0.00 | 0.23 | 0.00 | 65 | 1015.0 |
| 20260505194035 | 18 | 0 | 1.6 | 8.0 | 0.00 | 0.23 | 0.00 | 67 | 1015.0 |
| 20260505193532 | 18 | 0 | 3.2 | 6.4 | 0.00 | 0.23 | 0.00 | 67 | 1015.0 |
| 20260505193050 | 18 | 145 | 1.6 | 6.4 | 0.00 | 0.23 | 0.00 | 66 | 1015.0 |
| 20260505192534 | 18 | 349 | 1.6 | 4.8 | 0.00 | 0.23 | 0.00 | 67 | 1015.1 |
| 20260505192032 | 18 | 34 | 1.6 | 4.8 | 0.00 | 0.23 | 0.00 | 67 | 1015.2 |
| 20260505191543 | 18 | 53 | 1.6 | 6.4 | 0.00 | 0.23 | 0.00 | 67 | 1015.2 |
| 20260505191035 | 17 | 308 | 1.6 | 6.4 | 0.00 | 0.23 | 0.00 | 67 | 1015.3 |
| 20260505190536 | 18 | 304 | 0.0 | 11.3 | 0.00 | 0.23 | 0.00 | 69 | 1015.2 |
| 20260505190054 | 17 | 309 | 3.2 | 11.3 | 0.00 | 0.23 | 0.00 | 67 | 1015.3 |
| 20260505185536 | 17 | 5 | 0.0 | 9.7 | 0.00 | 0.28 | 0.00 | 70 | 1015.3 |
| 20260505185036 | 16 | 300 | 3.2 | 9.7 | 0.00 | 0.28 | 0.00 | 69 | 1015.3 |
| 20260505184548 | 16 | 218 | 3.2 | 9.7 | 0.00 | 0.28 | 0.00 | 70 | 1015.3 |
| 20260505184036 | 16 | 272 | 0.0 | 6.4 | 0.00 | 0.28 | 0.00 | 68 | 1015.3 |
| 20260505183533 | 16 | 271 | 0.0 | 6.4 | 0.00 | 0.28 | 0.00 | 72 | 1015.4 |
| 20260505183048 | 17 | 22 | 0.0 | 6.4 | 0.00 | 0.28 | 0.00 | 69 | 1015.3 |
| 20260505182536 | 17 | 0 | 1.6 | 6.4 | 0.00 | 0.28 | 0.00 | 67 | 1015.3 |
| 20260505182034 | 16 | 334 | 1.6 | 8.0 | 0.00 | 0.28 | 0.00 | 68 | 1015.3 |
| 20260505181542 | 17 | 30 | 1.6 | 8.0 | 0.00 | 0.28 | 0.00 | 69 | 1015.3 |
| 20260505181038 | 16 | 0 | 1.6 | 11.3 | 0.00 | 0.28 | 0.00 | 69 | 1015.2 |
| 20260505180534 | 15 | 271 | 3.2 | 11.3 | 0.00 | 0.28 | 0.00 | 71 | 1015.2 |
| 20260505180052 | 15 | 0 | 0.0 | 11.3 | 0.00 | 0.28 | 0.00 | 72 | 1015.2 |
| 20260505175534 | 16 | 5 | 0.0 | 12.9 | 0.00 | 0.28 | 0.00 | 73 | 1015.2 |
| 20260505175034 | 16 | 326 | 3.2 | 12.9 | 0.00 | 0.28 | 0.00 | 69 | 1015.2 |
| 20260505174550 | 16 | 212 | 1.6 | 8.0 | 0.00 | 0.28 | 0.00 | 70 | 1015.1 |
| 20260505174034 | 15 | 0 | 1.6 | 6.4 | 0.00 | 0.28 | 0.00 | 73 | 1015.1 |
| 20260505173536 | 15 | 323 | 1.6 | 6.4 | 0.00 | 0.28 | 0.00 | 75 | 1015.0 |
| 20260505173053 | 15 | 306 | 1.6 | 6.4 | 0.00 | 0.28 | 0.00 | 74 | 1015.1 |
| 20260505172534 | 15 | 0 | 1.6 | 4.8 | 0.00 | 0.28 | 0.00 | 75 | 1015.0 |
| 20260505172036 | 14 | 0 | 0.0 | 6.4 | 0.00 | 0.28 | 0.00 | 77 | 1015.0 |
| 20260505171552 | 15 | 0 | 1.6 | 6.4 | 0.00 | 0.28 | 0.00 | 74 | 1015.0 |
| 20260505171035 | 15 | 0 | 0.0 | 11.3 | 0.00 | 0.28 | 0.00 | 76 | 1015.0 |
| 20260505170534 | 14 | 18 | 0.0 | 11.3 | 0.00 | 0.28 | 0.00 | 77 | 1015.1 |
| 20260505170044 | 14 | 288 | 1.6 | 8.0 | 0.00 | 0.28 | 0.00 | 75 | 1015.1 |
| 20260505165535 | 14 | 286 | 0.0 | 6.4 | 0.00 | 0.28 | 0.00 | 77 | 1015.1 |
| 20260505165036 | 14 | 290 | 1.6 | 6.4 | 0.00 | 0.28 | 0.00 | 76 | 1015.0 |
| 20260505164606 | 14 | 0 | 1.6 | 6.4 | 0.00 | 0.28 | 0.00 | 77 | 1015.0 |
| 20260505164035 | 13 | 263 | 1.6 | 4.8 | 0.00 | 0.28 | 0.00 | 76 | 1015.0 |
| 20260505163535 | 13 | 0 | 0.0 | 4.8 | 0.00 | 0.28 | 0.00 | 81 | 1015.0 |
| 20260505163051 | 13 | 338 | 1.6 | 4.8 | 0.00 | 0.28 | 0.00 | 79 | 1015.0 |
| 20260505162534 | 13 | 346 | 1.6 | 8.0 | 0.00 | 0.28 | 0.00 | 79 | 1014.9 |
| 20260505162034 | 13 | 0 | 1.6 | 12.9 | 0.00 | 0.28 | 0.00 | 78 | 1014.9 |
| 20260505161545 | 13 | 346 | 1.6 | 12.9 | 0.00 | 0.28 | 0.00 | 80 | 1015.0 |
| 20260505161034 | 12 | 279 | 3.2 | 12.9 | 0.00 | 0.28 | 0.00 | 78 | 1015.0 |
| 20260505160534 | 12 | 0 | 1.6 | 11.3 | 0.00 | 0.28 | 0.00 | 80 | 1014.9 |
| 20260505153048 | 12 | 324 | 1.6 | 4.8 | 0.00 | 0.28 | 0.00 | 83 | 1015.1 |
| 20260505152531 | 12 | 292 | 0.0 | 4.8 | 0.00 | 0.28 | 0.00 | 84 | 1015.2 |
| 20260505152033 | 11 | 320 | 0.0 | 6.4 | 0.00 | 0.28 | 0.00 | 83 | 1015.1 |
| 20260505151545 | 11 | 0 | 1.6 | 6.4 | 0.00 | 0.28 | 0.00 | 84 | 1015.0 |
| 20260505151032 | 11 | 0 | 0.0 | 6.4 | 0.00 | 0.28 | 0.00 | 84 | 1015.0 |
| 20260505150531 | 11 | 0 | 1.6 | 6.4 | 0.00 | 0.28 | 0.00 | 84 | 1015.0 |
| 20260505140531 | 10 | 0 | 0.0 | 0.0 | 0.00 | 0.28 | 0.00 | 89 | 1014.5 |
| 20260505125037 | 11 | 0 | 0.0 | 0.0 | 0.00 | 0.28 | 0.00 | 88 | 1014.2 |
| 20260505124548 | 11 | 0 | 0.0 | 0.0 | 0.00 | 0.28 | 0.00 | 88 | 1014.1 |
| 20260505124033 | 11 | 0 | 0.0 | 0.0 | 0.00 | 0.28 | 0.00 | 88 | 1014.0 |
| 20260505123536 | 11 | 0 | 0.0 | 0.0 | 0.00 | 0.28 | 0.00 | 88 | 1014.1 |
| 20260505123043 | 11 | 0 | 0.0 | 0.0 | 0.00 | 0.28 | 0.00 | 87 | 1014.1 |
| 20260505122534 | 11 | 0 | 0.0 | 0.0 | 0.00 | 0.28 | 0.00 | 87 | 1014.0 |
| 20260505122034 | 11 | 0 | 0.0 | 0.0 | 0.00 | 0.28 | 0.00 | 87 | 1014.1 |
| 20260505121542 | 11 | 0 | 0.0 | 0.0 | 0.00 | 0.28 | 0.00 | 87 | 1014.1 |
| 20260505121034 | 11 | 0 | 0.0 | 0.0 | 0.00 | 0.28 | 0.00 | 87 | 1014.1 |
| 20260505120534 | 11 | 0 | 0.0 | 0.0 | 0.00 | 0.28 | 0.00 | 87 | 1014.0 |
| 20260505120051 | 11 | 0 | 0.0 | 0.0 | 0.00 | 0.28 | 0.00 | 87 | 1014.0 |
| 20260505115534 | 11 | 0 | 0.0 | 0.0 | 0.00 | 0.28 | 0.00 | 86 | 1014.1 |
| 20260505115034 | 11 | 0 | 0.0 | 0.0 | 0.00 | 0.28 | 0.00 | 86 | 1014.1 |
| 20260505114547 | 11 | 0 | 0.0 | 0.0 | 0.00 | 0.28 | 0.00 | 86 | 1014.1 |
| 20260505114035 | 11 | 0 | 0.0 | 0.0 | 0.00 | 0.28 | 0.00 | 86 | 1014.1 |
| 20260505113538 | 11 | 0 | 0.0 | 6.4 | 0.00 | 0.28 | 0.00 | 86 | 1014.2 |
| 20260505113055 | 11 | 0 | 0.0 | 6.4 | 0.00 | 0.28 | 0.00 | 86 | 1014.1 |
| 20260505112538 | 11 | 0 | 1.6 | 6.4 | 0.00 | 0.28 | 0.00 | 86 | 1014.2 |
| 20260505112034 | 11 | 0 | 0.0 | 4.8 | 0.00 | 0.28 | 0.00 | 86 | 1014.2 |
| 20260505111544 | 11 | 0 | 0.0 | 4.8 | 0.00 | 0.28 | 0.00 | 86 | 1014.1 |
| 20260505111034 | 11 | 300 | 0.0 | 4.8 | 0.00 | 0.28 | 0.00 | 86 | 1014.1 |
| 20260505110535 | 11 | 0 | 0.0 | 0.0 | 0.00 | 0.28 | 0.00 | 86 | 1014.1 |